COSMOS 2251 DEB

Satellite information

Favourite Embed

Satellite Type and Status

DEBRISIN ORBIT

Key statistics

Satellite COSMOS 2251 DEB at a glance.

Uptime

11869

Days in orbit

Revolutions

≈ 14.6

Per day

Orbit

LEO

Low Earth Orbit

Inclination

74.0

Latest

Satellite identification and parameters

Extended collection of information and parameters for COSMOS 2251 DEB.

Object identification

Identified? True

Debris? True

Object name: COSMOS 2251 DEB

International designator: 1993-036LW

Object number (NORAD): 34276

Object ID (CCSDS): 34276

Country: COMMONWEALTH OF INDEPENDENT STATES (CIS)

Current information (Y/N): Y

RCS size: SMALL

Orbital parameters

Period: 98.818 minutes

Inclination: 74.0233 deg

SMA: 7080.285 km

Apoapsis: 718.148 km

Periapsis: 686.152 km

RAAN: 86.1909 deg

Eccentricy: 0.00225955

Argument of periapsis: 232.9767 deg

Mean anomaly: 149.4764 deg

Mean motion: 14.57225068 rev/day

Mean motion (dot): 0.00006015 rev/day2

B* drag term: 0.001332092 1/REarth

Two-line elements (TLE)

Creation date: Dec. 12, 2025, 10:14 a.m.

Reference frame: TEME

Reference center: EARTH

Epoch: Dec. 12, 2025, 6:45 a.m. UTC

TLE line 0: 0 COSMOS 2251 DEB

TLE line 1: 1 34276U 93036LW 25346.28193740 .00006015 00000-0 13321-2 0 9991

TLE line 2: 2 34276 74.0233 86.1909 0022596 232.9767 149.4764 14.57225068885866

Live tracking on map

Real-time ground track for satellite COSMOS 2251 DEB.

In-orbit conjunctions

A list of the most updated potential collisions computed for object COSMOS 2251 DEB.

Target Orbit TCA Probability of collision Miss distance Type
CZ-6A DEB LEO 2024-12-30 10:20:25 0.0001149668 938.0 (m) DEBRIS
CZ-6A DEB LEO 2024-12-17 05:14:21 0.000100856 947.0 (m) DEBRIS

Associated space launch

Military communications satellite. Destroyed in a collision with Iridium 33.

COSMOS 2251 DEB was lifted into orbit during the mission ‘Kosmos-3M | Strela-2M 51’, on board a Kosmos-3M space rocket.

The launch took place on June 16, 1993, 4:17 a.m. from 132/1 (132L).

For more information about the launch, click the button.

Launch to space Kosmos-3M | Strela-2M 51
Kosmos-3M | Strela-2M 51

Agency: N/A

Status: Launch Successful

Launch date: June 16, 1993, 4:17 a.m. UTC

Rocket: Kosmos-3M

Launch pad: 132/1 (132L)

Location: Plesetsk Cosmodrome, Russian Federation

...

Latest news about this satellite

There are no fresh news available about this satellite. Check back as we update our databases every day.


Newsletter sign-up

Weekly statistics, charts and insights to help you stay on top of the space industry.